Location: Newark
(41.0400°S, 62.7845°W)
Time: 03:47:35
(UTC+00:00)

Vanguard 2 Rocket - All Passes

Search period start: 28 November 2021 00:00
Search period end: 08 December 2021 00:00
Orbit: 555 x 3324 km, 32.9° (Epoch: 27 November)

Date Brightness Start Highest point End Pass type
(mag) Time Alt. Az. Time Alt. Az. Time Alt. Az.
28 Nov - 07:36:22 10° N 07:44:01 14° NE 07:50:34 10° ENE visible
28 Nov - 09:45:47 10° NNW 09:59:29 33° NNE 10:08:29 10° E daylight
28 Nov - 12:01:44 10° WNW 12:14:13 48° N 12:21:24 10° ENE daylight
28 Nov - 14:19:02 10° W 14:27:41 42° NNW 14:32:56 10° ENE daylight
28 Nov - 16:36:22 10° WNW 16:39:37 15° NW 16:42:18 10° N daylight
29 Nov - 08:44:51 10° NNW 08:58:34 28° NNE 09:08:20 10° E daylight
29 Nov - 10:59:39 10° NW 11:13:49 46° NNE 11:22:12 10° E daylight
29 Nov - 13:17:08 10° WNW 13:27:57 49° N 13:34:11 10° ENE daylight
29 Nov - 15:34:30 10° W 15:40:31 25° NNW 15:44:41 10° NNE daylight
30 Nov - 07:44:43 10° N 07:57:28 23° NNE 08:07:26 10° ENE visible
30 Nov - 09:57:43 10° NW 10:13:06 42° NNE 10:22:44 10° E daylight
30 Nov - 12:14:55 10° WNW 12:27:54 53° N 12:35:15 10° ENE daylight
30 Nov - 14:32:43 10° W 14:41:11 37° NNW 14:46:26 10° NE daylight
01 Dec - 06:45:57 10° N 06:56:18 17° NE 07:05:11 10° ENE visible
01 Dec - 08:56:08 10° NW 09:12:05 37° NNE 09:22:52 10° E daylight
01 Dec - 11:12:32 10° WNW 11:27:28 53° N 11:36:07 10° E daylight
01 Dec - 13:30:39 10° W 13:41:32 47° NNW 13:47:50 10° ENE daylight
01 Dec - 15:48:49 10° WNW 15:53:42 18° NW 15:57:22 10° N daylight
02 Dec - 05:50:47 10° NNE 05:55:08 11° NE 05:59:17 10° NE visible
02 Dec - 07:55:11 10° NNW 08:10:51 32° NNE 08:22:30 10° E visible
02 Dec - 10:10:13 10° NW 10:26:42 51° NNE 10:36:43 10° E daylight
02 Dec - 12:28:17 10° WNW 12:41:31 54° N 12:48:59 10° ENE daylight
02 Dec - 14:46:33 10° W 14:54:30 30° NNW 14:59:38 10° NNE daylight
03 Dec - 06:55:06 10° NNW 07:09:32 26° NE 07:21:21 10° E visible
03 Dec - 09:08:11 10° NW 09:25:34 47° NNE 09:37:00 10° E daylight
03 Dec - 11:25:42 10° WNW 11:41:05 58° N 11:49:54 10° ENE daylight
03 Dec - 13:44:17 10° W 13:54:59 42° NNW 14:01:18 10° NE daylight
03 Dec - 16:04:14 10° WNW 16:06:41 12° NW 16:08:49 10° NNW daylight
04 Dec - 05:56:20 10° N 06:08:14 19° NE 06:18:55 10° ENE visible
04 Dec - 08:06:40 10° NW 08:24:12 41° NNE 08:36:53 10° E daylight
04 Dec - 10:23:07 10° WNW 10:40:16 57° N 10:50:34 10° E daylight
04 Dec - 12:41:46 10° W 12:55:03 52° NNW 13:02:36 10° ENE daylight
04 Dec - 15:00:42 10° W 15:07:36 22° NW 15:12:24 10° N daylight
05 Dec - 05:00:21 10° NNE 05:07:04 12° NE 05:13:34 10° ENE visible
05 Dec - 07:05:52 10° NNW 07:22:43 35° NNE 07:36:11 10° E visible
05 Dec - 09:20:45 10° WNW 09:39:04 55° NNE 09:50:55 10° E daylight
05 Dec - 11:39:03 10° W 11:54:40 58° N 12:03:36 10° ENE daylight
05 Dec - 13:58:03 10° W 14:08:14 34° NNW 14:14:30 10° NNE daylight
06 Dec - 06:05:59 10° NNW 06:21:14 28° NE 06:34:40 10° E visible
06 Dec - 08:18:50 10° NW 08:37:33 50° NNE 08:50:54 10° E daylight
06 Dec - 10:36:18 10° WNW 10:53:50 61° N 11:04:18 10° ENE daylight
06 Dec - 12:55:21 10° W 13:08:26 46° NNW 13:16:02 10° NE daylight
06 Dec - 15:15:34 10° WNW 15:20:28 15° NW 15:24:18 10° NNW daylight
07 Dec - 05:07:24 10° N 05:19:55 21° NE 05:31:53 10° E visible
07 Dec - 07:17:33 10° NW 07:35:52 44° NNE 07:50:25 10° E visible
07 Dec - 09:33:42 10° WNW 09:52:33 61° N 10:04:43 10° E daylight
07 Dec - 11:52:31 10° W 12:08:08 55° NNW 12:17:11 10° ENE daylight
07 Dec - 14:12:04 10° W 14:21:13 26° NW 14:27:17 10° NNE daylight
